Weather History for Ravenna, OH

Change the Weather History Date:

Monday, May 7, 2012

  Actual Average (KCAK) Record (KCAK)
Temperature  
Mean Temperature 64 °F 56 °F  
Max Temperature 78 °F 67 °F 87 °F (1936)
Min Temperature 51 °F 46 °F 27 °F (1970)
Degree Days  
Heating Degree Days 0 9  
Month to date heating degree days 70  
Since 1 July heating degree days 5946  
Cooling Degree Days 0 1  
Month to date cooling degree days 1  
Year to date cooling degree days 7  
Growing Degree Days 14 (Base 50)    
Moisture  
Dew Point 52 °F    
Average Humidity 70    
Maximum Humidity 100    
Minimum Humidity 47    
Precipitation  
Precipitation 1.51 in 0.14 in 0.86 in (1953)
Month to date precipitation 0.90  
Year to date precipitation 12.35  
Snow  
Snow 0.00 in 0.00 in - ()
Month to date snowfall 0.1  
Since 1 July snowfall 47.5  
Snow Depth -    
Sea Level Pressure  
Sea Level Pressure 29.89 in    
Wind  
Wind Speed 4 mph (East)    
Max Wind Speed 13 mph    
Max Gust Speed 28 mph    
Visibility 9 miles    
Events      
T = Trace of Precipitation, MM = Missing Value Source: NWS Daily Summary

Daily Weather History Graph

Daily Weather History Graph

Search for Another Location

Airport:

Trip Planner

Search our weather history database for the weather conditions in past years. The results will help you decide how hot, cold, wet, or windy it might be!

Date:

Astronomy

May. 07, 2012 Rise Set
Actual Time 6:14 AM EDT 8:29 PM EDT
Civil Twilight 5:44 AM EDT 8:59 PM EDT
Nautical Twilight 5:06 AM EDT 9:37 PM EDT
Astronomical Twilight 4:24 AM EDT 10:19 PM EDT
Moon 10:40 PM EDT (5/7) 7:18 AM EDT (5/7)
Length of Visible Light 15h 15m
Length of Day
14h 14m
Waning Gibbous, 97% of the Moon is Illuminated
May 7
Waning Gibbous
May 12
Last Quarter
May 20
New
May 28
First Quarter
Jun 4
Full

Hourly Weather History & Observations

Time (EDT) Temp. Dew Point Humidity Pressure Visibility Wind Dir Wind Speed Gust Speed Precip Events Conditions
12:15 AM 57.0 °F 36.9 °F 47% 30.01 in 10.0 mi Calm Calm - N/A   Clear
12:34 AM 54.7 °F 39.2 °F 56% 30.00 in 10.0 mi East 3.5 mph - N/A   Clear
12:54 AM 54.5 °F 39.9 °F 58% 30.00 in 10.0 mi ENE 4.6 mph - N/A   Clear
1:14 AM 54.0 °F 40.3 °F 60% 29.99 in 10.0 mi ENE 5.8 mph - N/A   Clear
1:34 AM 54.3 °F 40.3 °F 59% 29.98 in 10.0 mi ENE 6.9 mph - N/A   Clear
1:55 AM 54.1 °F 40.1 °F 59% 29.97 in 10.0 mi ENE 6.9 mph - N/A   Clear
2:15 AM 53.8 °F 39.0 °F 57% 29.96 in 10.0 mi East 5.8 mph - N/A   Clear
2:34 AM 52.7 °F 39.2 °F 60% 29.95 in 10.0 mi East 5.8 mph - N/A   Clear
2:55 AM 51.8 °F 39.4 °F 63% 29.95 in 10.0 mi ENE 5.8 mph - N/A   Clear
3:15 AM 51.3 °F 39.6 °F 64% 29.95 in 10.0 mi ENE 5.8 mph - N/A   Clear
3:34 AM 51.8 °F 39.6 °F 63% 29.94 in 10.0 mi East 4.6 mph - N/A   Clear
3:55 AM 52.5 °F 40.1 °F 63% 29.93 in 10.0 mi East 5.8 mph - N/A   Scattered Clouds
4:15 AM 53.2 °F 40.8 °F 63% 29.92 in 10.0 mi East 4.6 mph - N/A   Scattered Clouds
4:34 AM 52.2 °F 42.6 °F 70% 29.92 in 10.0 mi East 3.5 mph - N/A   Scattered Clouds
4:55 AM 52.7 °F 42.1 °F 67% 29.93 in 10.0 mi East 3.5 mph - N/A   Scattered Clouds
5:15 AM 53.8 °F 42.1 °F 65% 29.93 in 10.0 mi East 3.5 mph - N/A   Clear
5:34 AM 53.8 °F 43.5 °F 68% 29.93 in 10.0 mi East 3.5 mph - N/A   Scattered Clouds
5:54 AM 54.0 °F 44.1 °F 69% 29.93 in 10.0 mi East 4.6 mph - N/A   Mostly Cloudy
6:15 AM 55.0 °F 42.1 °F 62% 29.93 in 10.0 mi East 3.5 mph - N/A   Overcast
6:34 AM 54.5 °F 43.3 °F 66% 29.93 in 10.0 mi East 3.5 mph - N/A   Overcast
6:55 AM 55.0 °F 45.0 °F 69% 29.94 in 10.0 mi Calm Calm - N/A   Overcast
7:14 AM 56.3 °F 45.1 °F 66% 29.94 in 10.0 mi ENE 4.6 mph - N/A   Overcast
7:34 AM 57.2 °F 45.7 °F 65% 29.93 in 10.0 mi East 4.6 mph - N/A   Overcast
7:55 AM 57.7 °F 45.7 °F 64% 29.93 in 10.0 mi East 4.6 mph - N/A   Overcast
8:15 AM 59.0 °F 46.6 °F 63% 29.93 in 10.0 mi East 4.6 mph - N/A   Overcast
8:34 AM 60.8 °F 46.6 °F 59% 29.93 in 10.0 mi East 5.8 mph - N/A   Mostly Cloudy
8:55 AM 60.8 °F 46.4 °F 59% 29.93 in 10.0 mi East 5.8 mph - N/A   Scattered Clouds
9:15 AM 60.1 °F 46.4 °F 61% 29.93 in 10.0 mi ESE 4.6 mph - N/A   Mostly Cloudy
9:34 AM 56.3 °F 51.1 °F 83% 29.93 in 10.0 mi East 3.5 mph - 0.05 in   Overcast
9:54 AM 59.5 °F 51.8 °F 76% 29.93 in 10.0 mi East 5.8 mph - 0.05 in   Overcast
10:15 AM 59.0 °F 52.3 °F 79% 29.93 in 10.0 mi East 4.6 mph - N/A   Overcast
10:34 AM 60.1 °F 53.4 °F 79% 29.93 in 10.0 mi East 4.6 mph - N/A   Mostly Cloudy
10:54 AM 61.7 °F 54.1 °F 76% 29.93 in 10.0 mi East 3.5 mph - N/A   Scattered Clouds
11:15 AM 63.3 °F 54.5 °F 73% 29.93 in 10.0 mi ENE 5.8 mph - N/A   Scattered Clouds
11:34 AM 64.4 °F 54.7 °F 71% 29.93 in 10.0 mi East 5.8 mph - N/A   Clear
11:54 AM 64.8 °F 54.9 °F 70% 29.93 in 10.0 mi East 4.6 mph - N/A   Scattered Clouds
12:15 PM 65.5 °F 54.5 °F 68% 29.94 in 10.0 mi NNW 4.6 mph - N/A   Mostly Cloudy
12:34 PM 66.7 °F 54.5 °F 65% 29.94 in 10.0 mi NNW 6.9 mph - N/A   Scattered Clouds
12:55 PM 67.1 °F 54.0 °F 63% 29.93 in 10.0 mi NNE 5.8 mph - N/A   Mostly Cloudy
1:15 PM 67.8 °F 55.0 °F 64% 29.92 in 10.0 mi NNW 4.6 mph - N/A   Overcast
1:34 PM 66.4 °F 55.0 °F 67% 29.92 in 10.0 mi ENE 4.6 mph - N/A   Overcast
1:55 PM 69.6 °F 56.3 °F 63% 29.90 in 10.0 mi East 5.8 mph - N/A   Mostly Cloudy
2:14 PM 72.5 °F 58.6 °F 62% 29.88 in 10.0 mi ESE 4.6 mph - N/A   Scattered Clouds
2:34 PM 72.7 °F 58.8 °F 62% 29.88 in 10.0 mi SE 4.6 mph - N/A   Clear
2:55 PM 76.1 °F 60.3 °F 58% 29.86 in 10.0 mi SSE 3.5 mph - N/A   Scattered Clouds
3:15 PM 75.6 °F 59.4 °F 57% 29.86 in 10.0 mi South 3.5 mph - N/A   Mostly Cloudy
3:34 PM 75.4 °F 59.5 °F 58% 29.85 in 10.0 mi SSE 4.6 mph - N/A   Overcast
3:55 PM 75.7 °F 59.7 °F 57% 29.85 in 10.0 mi ESE 5.8 mph - N/A   Overcast
4:15 PM 77.9 °F 61.3 °F 57% 29.84 in 10.0 mi ESE 4.6 mph - N/A   Mostly Cloudy
4:34 PM 77.5 °F 60.1 °F 55% 29.83 in 10.0 mi Calm Calm - N/A   Mostly Cloudy
4:55 PM 76.1 °F 59.2 °F 56% 29.82 in 10.0 mi Calm Calm - N/A   Mostly Cloudy
5:15 PM 78.8 °F 60.4 °F 53% 29.81 in 10.0 mi SSE 4.6 mph - N/A   Mostly Cloudy
5:34 PM 76.6 °F 59.7 °F 56% 29.80 in 10.0 mi SE 5.8 mph - N/A   Mostly Cloudy
5:55 PM 75.6 °F 59.7 °F 58% 29.79 in 10.0 mi Calm Calm - N/A   Overcast
6:15 PM 74.7 °F 60.4 °F 61% 29.78 in 10.0 mi Calm Calm - N/A   Overcast
6:34 PM 71.8 °F 61.3 °F 70% 29.78 in 7.0 mi North 6.9 mph - N/A   Overcast
6:54 PM 66.2 °F 62.1 °F 86% 29.78 in 0.8 mi NE 10.4 mph 27.6 mph 0.65 in   Overcast
7:15 PM 64.4 °F 60.8 °F 88% 29.81 in 4.0 mi WSW 5.8 mph - 0.05 in   Overcast
7:34 PM 63.7 °F 62.4 °F 96% 29.80 in 3.0 mi North 5.8 mph - 0.14 in   Overcast
7:54 PM 64.2 °F 63.9 °F 99% 29.81 in 10.0 mi SW 9.2 mph - 0.16 in   Overcast
8:15 PM 63.5 °F 62.6 °F 97% 29.82 in 1.5 mi WNW 12.7 mph 16.1 mph 0.32 in   Overcast
8:34 PM 62.4 °F 60.8 °F 94% 29.82 in 5.0 mi South 4.6 mph - 0.37 in   Overcast
8:55 PM 61.9 °F 61.0 °F 97% 29.82 in 7.0 mi Calm Calm - 0.41 in   Overcast
9:15 PM 61.3 °F 61.5 °F 100% 29.84 in 5.0 mi West 6.9 mph - 0.01 in   Overcast
9:34 PM - - N/A% 29.84 in 7.0 mi Calm Calm - 0.04 in   Overcast
9:54 PM 61.7 °F 61.7 °F 100% 29.85 in 4.0 mi South 5.8 mph - 0.09 in   Overcast
10:15 PM 61.7 °F 61.9 °F 100% 29.84 in 4.0 mi SSE 3.5 mph - 0.06 in   Overcast
10:34 PM 61.7 °F 61.7 °F 100% 29.82 in 5.0 mi ESE 3.5 mph - 0.11 in   Overcast
10:54 PM - - N/A% 29.82 in 5.0 mi SE 4.6 mph - 0.13 in   Overcast
11:15 PM 61.2 °F 61.3 °F 100% 29.80 in 7.0 mi ENE 3.5 mph - 0.01 in   Overcast
11:34 PM 61.2 °F 61.3 °F 100% 29.79 in 7.0 mi SSE 4.6 mph - 0.02 in   Overcast
11:55 PM 61.2 °F 61.3 °F 100% 29.79 in 10.0 mi Calm Calm - 0.02 in   Overcast